Location: Newark
(23.3970°S, 47.6010°W)
Time: 04:43:03
(UTC+00:00)

Tiros 1 despin weight - Pass Details

Date: 20 February 2020
Orbit: 593 x 642 km, 48.2° (Epoch: 04 April)

Event Time Altitude Azimuth Distance (km) Brightness Sun altitude
Rises 13:29:02 0° 350° (N) 2,868 ? 59.9°
Reaches altitude 10° 13:31:54 10° 9° (N) 1,980 ? 60.5°
Maximum altitude 13:35:03 19° 53° (NE) 1,515 ? 61.2°
Drops below altitude 10° 13:38:16 10° 97° (E) 2,016 ? 61.9°
Sets 13:41:12 0° 115° (ESE) 2,939 ? 62.5°
